Weather History for Visalia, CA

Change the Weather History Date:

Tuesday, April 22, 2014

  Actual Average Record
Temperature  
Mean Temperature 63 °F -  
Max Temperature 71 °F 74 °F 98 °F (1950)
Min Temperature 53 °F 49 °F 39 °F (1932)
Degree Days  
Heating Degree Days 2    
Growing Degree Days 13 (Base 50)    
Moisture  
Dew Point 36 °F    
Average Humidity 39    
Maximum Humidity 59    
Minimum Humidity 21    
Precipitation  
Precipitation 0.00 in - - ()
Sea Level Pressure  
Sea Level Pressure 29.98 in    
Wind  
Wind Speed 11 mph (NW)    
Max Wind Speed 24 mph    
Max Gust Speed 29 mph    
Visibility 10 miles    
Events      
Averages and records for this station are not official NWS values.
T = Trace of Precipitation, MM = Missing Value Source: NWS Daily Summary

Daily Weather History Graph

Daily Weather History Graph

Search for Another Location

Airport:

Trip Planner

Search our weather history database for the weather conditions in past years. The results will help you decide how hot, cold, wet, or windy it might be!

Date:

Astronomy

Apr. 22, 2014 Rise Set
Actual Time 6:14 AM PDT 7:37 PM PDT
Civil Twilight 5:48 AM PDT 8:04 PM PDT
Nautical Twilight 5:15 AM PDT 8:37 PM PDT
Astronomical Twilight 4:42 AM PDT 9:10 PM PDT
Moon 1:55 AM PDT (4/22) 12:56 PM PDT (4/22)
Length of Visible Light 14h 16m
Length of Day
13h 22m
Last Quarter, 45% of the Moon is Illuminated
Apr 22
Last Quarter
Apr 28
New
May 6
First Quarter
May 14
Full
May 21
Last Quarter

Hourly Weather History & Observations

Time (PDT) Temp. Dew Point Humidity Pressure Visibility Wind Dir Wind Speed Gust Speed Precip Events Conditions
12:15 AM 64.4 °F 39.2 °F 40% 29.90 in 10.0 mi NNW 8.1 mph - N/A   Clear
12:35 AM 66.2 °F 39.2 °F 37% 29.90 in 10.0 mi NNW 9.2 mph - N/A   Clear
12:55 AM 64.4 °F 37.4 °F 37% 29.90 in 10.0 mi NNW 9.2 mph - N/A   Clear
1:15 AM 64.4 °F 37.4 °F 37% 29.90 in 10.0 mi NNW 9.2 mph - N/A   Clear
1:35 AM 62.6 °F 35.6 °F 37% 29.90 in 10.0 mi NW 6.9 mph - N/A   Clear
1:55 AM 60.8 °F 37.4 °F 42% 29.90 in 10.0 mi WNW 5.8 mph - N/A   Clear
2:15 AM 57.2 °F 37.4 °F 48% 29.90 in 10.0 mi NW 8.1 mph - N/A   Clear
2:35 AM 57.2 °F 37.4 °F 48% 29.90 in 10.0 mi WNW 5.8 mph - N/A   Clear
3:15 AM 55.4 °F 37.4 °F 51% 29.90 in 10.0 mi West 5.8 mph - N/A   Clear
3:35 AM 55.4 °F 37.4 °F 51% 29.91 in 10.0 mi WNW 3.5 mph - N/A   Clear
3:55 AM 55.4 °F 37.4 °F 51% 29.92 in 10.0 mi WNW 5.8 mph - N/A   Clear
4:15 AM 57.2 °F 35.6 °F 44% 29.92 in 10.0 mi NW 9.2 mph - N/A   Clear
4:35 AM 57.2 °F 35.6 °F 44% 29.93 in 10.0 mi NW 6.9 mph - N/A   Clear
4:55 AM 57.2 °F 37.4 °F 48% 29.93 in 10.0 mi NNW 10.4 mph - N/A   Partly Cloudy
5:15 AM 57.2 °F 37.4 °F 48% 29.93 in 10.0 mi NW 9.2 mph - N/A   Clear
5:35 AM 57.2 °F 37.4 °F 48% 29.94 in 10.0 mi NNW 5.8 mph - N/A   Clear
5:55 AM 57.2 °F 37.4 °F 48% 29.96 in 10.0 mi WNW 9.2 mph - N/A   Clear
6:15 AM 57.2 °F 39.2 °F 51% 29.96 in 10.0 mi NW 9.2 mph - N/A   Clear
6:35 AM 57.2 °F 39.2 °F 51% 29.97 in 10.0 mi NNW 8.1 mph - N/A   Clear
6:55 AM 57.2 °F 42.8 °F 59% 29.98 in 10.0 mi North 6.9 mph - N/A   Clear
7:15 AM 57.2 °F 42.8 °F 59% 29.98 in 10.0 mi North 6.9 mph - N/A   Partly Cloudy
7:35 AM 57.2 °F 42.8 °F 59% 30.01 in 10.0 mi NW 13.8 mph - N/A   Partly Cloudy
7:55 AM 59.0 °F 44.6 °F 59% 30.01 in 10.0 mi NW 15.0 mph - N/A   Scattered Clouds
8:15 AM 60.8 °F 44.6 °F 55% 30.02 in 10.0 mi NNW 20.7 mph 25.3 mph N/A   Mostly Cloudy
8:35 AM 60.8 °F 42.8 °F 52% 30.02 in 9.0 mi NNW 19.6 mph - N/A   Mostly Cloudy
8:55 AM 60.8 °F 42.8 °F 52% 30.03 in 10.0 mi NNW 20.7 mph 26.5 mph N/A   Mostly Cloudy
9:15 AM 60.8 °F 42.8 °F 52% 30.04 in 10.0 mi NNW 24.2 mph 27.6 mph N/A   Partly Cloudy
9:35 AM 60.8 °F 44.6 °F 55% 30.04 in 8.0 mi NW 19.6 mph - N/A   Clear
9:55 AM 62.6 °F 42.8 °F 48% 30.05 in 2.5 mi NW 20.7 mph 28.8 mph N/A   Partly Cloudy
10:15 AM 62.6 °F 42.8 °F 48% 30.05 in 10.0 mi NNW 19.6 mph 24.2 mph N/A   Scattered Clouds
10:35 AM 62.6 °F 42.8 °F 48% 30.05 in 10.0 mi NNW 13.8 mph 24.2 mph N/A   Scattered Clouds
10:55 AM 64.4 °F 41.0 °F 42% 30.05 in 10.0 mi NNW 16.1 mph - N/A   Partly Cloudy
11:15 AM 64.4 °F 42.8 °F 45% 30.04 in 10.0 mi NNW 13.8 mph 19.6 mph N/A   Clear
11:35 AM 64.4 °F 42.8 °F 45% 30.05 in 10.0 mi NW 16.1 mph 24.2 mph N/A   Partly Cloudy
11:55 AM 64.4 °F 44.6 °F 49% 30.05 in 10.0 mi NW 15.0 mph 20.7 mph N/A   Partly Cloudy
12:15 PM 66.2 °F 44.6 °F 46% 30.04 in 10.0 mi North 11.5 mph 20.7 mph N/A   Partly Cloudy
12:35 PM 66.2 °F 42.8 °F 43% 30.04 in 10.0 mi NW 15.0 mph 20.7 mph N/A   Clear
12:55 PM 66.2 °F 42.8 °F 43% 30.04 in 10.0 mi NW 13.8 mph - N/A   Clear
1:15 PM 68.0 °F 39.2 °F 35% 30.04 in 10.0 mi NNW 16.1 mph 20.7 mph N/A   Clear
1:35 PM 69.8 °F 39.2 °F 33% 30.03 in 10.0 mi NNW 12.7 mph - N/A   Clear
1:55 PM 69.8 °F 35.6 °F 28% 30.03 in 10.0 mi NNW 16.1 mph 21.9 mph N/A   Clear
2:15 PM 69.8 °F 33.8 °F 27% 30.03 in 10.0 mi NW 13.8 mph 20.7 mph N/A   Clear
2:35 PM 69.8 °F 33.8 °F 27% 30.02 in 10.0 mi NW 11.5 mph 21.9 mph N/A   Clear
2:55 PM 71.6 °F 33.8 °F 25% 30.01 in 10.0 mi NNW 11.5 mph 21.9 mph N/A   Clear
3:15 PM 69.8 °F 33.8 °F 27% 30.00 in 10.0 mi WNW 18.4 mph 23.0 mph N/A   Clear
3:35 PM 71.6 °F 33.8 °F 25% 29.99 in 10.0 mi NW 17.3 mph 23.0 mph N/A   Clear
3:55 PM 71.6 °F 35.6 °F 27% 29.99 in 10.0 mi WNW 16.1 mph - N/A   Clear
4:15 PM 71.6 °F 35.6 °F 27% 29.98 in 10.0 mi NW 16.1 mph 21.9 mph N/A   Clear
4:35 PM 71.6 °F 33.8 °F 25% 29.98 in 10.0 mi NW 18.4 mph 24.2 mph N/A   Clear
4:55 PM 71.6 °F 32.0 °F 23% 29.98 in 10.0 mi NW 18.4 mph 21.9 mph N/A   Clear
5:15 PM 71.6 °F 30.2 °F 22% 29.97 in 10.0 mi NW 18.4 mph 23.0 mph N/A   Clear
5:35 PM 69.8 °F 30.2 °F 23% 29.97 in 10.0 mi NW 18.4 mph 21.9 mph N/A   Clear
5:55 PM 69.8 °F 30.2 °F 23% 29.97 in 10.0 mi NW 16.1 mph - N/A   Clear
6:15 PM 69.8 °F 28.4 °F 21% 29.97 in 10.0 mi NW 18.4 mph 24.2 mph N/A   Clear
6:35 PM 68.0 °F 28.4 °F 23% 29.97 in 10.0 mi NW 16.1 mph 21.9 mph N/A   Clear
6:55 PM 66.2 °F 28.4 °F 24% 29.97 in 10.0 mi NW 16.1 mph - N/A   Clear
7:15 PM 66.2 °F 28.4 °F 24% 29.97 in 10.0 mi NW 15.0 mph - N/A   Clear
7:35 PM 64.4 °F 30.2 °F 28% 29.97 in 10.0 mi NNW 11.5 mph - N/A   Clear
7:55 PM 64.4 °F 28.4 °F 26% 29.98 in 10.0 mi NNW 11.5 mph - N/A   Clear
8:15 PM 62.6 °F 28.4 °F 27% 29.98 in 10.0 mi NNW 15.0 mph - N/A   Clear
8:35 PM 62.6 °F 30.2 °F 30% 29.98 in 10.0 mi NNW 15.0 mph - N/A   Clear
8:55 PM 62.6 °F 30.2 °F 30% 29.99 in 10.0 mi NNW 15.0 mph - N/A   Clear
9:15 PM 62.6 °F 30.2 °F 30% 29.99 in 10.0 mi NNW 13.8 mph - N/A   Clear
9:35 PM 60.8 °F 30.2 °F 31% 29.99 in 10.0 mi NNW 11.5 mph - N/A   Clear
9:55 PM 60.8 °F 30.2 °F 31% 30.00 in 10.0 mi NW 12.7 mph - N/A   Clear
10:15 PM 60.8 °F 30.2 °F 31% 30.00 in 10.0 mi NW 10.4 mph - N/A   Clear
10:35 PM 59.0 °F 30.2 °F 34% 30.00 in 10.0 mi NW 11.5 mph - N/A   Clear
10:55 PM 55.4 °F 30.2 °F 38% 30.00 in 10.0 mi NW 10.4 mph - N/A   Clear
11:15 PM 55.4 °F 32.0 °F 41% 30.01 in 10.0 mi WNW 9.2 mph - N/A   Clear
11:35 PM 55.4 °F 33.8 °F 44% 30.02 in 10.0 mi WNW 8.1 mph - N/A   Clear
11:55 PM 53.6 °F 33.8 °F 47% 30.03 in 10.0 mi WNW 8.1 mph - N/A   Clear